User: anonymous   Login
Location: Unspecified
(0.0000°N, 0.0000°E)
Time: 08:51:53
(UTC+00:00)
Language:

FORMOSAT 3D - Orbit

View from above orbital plane
View from above orbital plane
View from above satellite
View from above satellite

Ground track
Ground track

The orbit data is extracted from the following two-line orbital elements,

1 29050U 06011D   21016.86141272  .00000130  00000-0  37627-4 0  9998
2 29050  72.0147 242.1941 0051536 295.8132  63.7709 14.59005321787455
Epoch (UTC): 16 January 2021 20:40:26
Eccentricity: 0.0051536
inclination: 72.0147°
perigee height: 660 km
apogee height: 733 km
right ascension of ascending node: 242.1941°
argument of perigee: 295.8132°
revolutions per day: 14.59005321
mean anomaly at epoch: 63.7709°
orbit number at epoch: 78745

The dashed part of the orbit path shows where the satellite is in the earth's shadow,  

DLR